Location: ?????
(37.7324°N, 23.9257°E)
Time: 08:22:32
(UTC+00:00)

Cosmos 2181 Rocket - Pass Details

Date: 29 November 2020
Orbit: 951 x 1015 km, 82.9° (Epoch: 17 January)

Event Time Altitude Azimuth Distance (km) Brightness Sun altitude
Rises 03:13:15 0° 354° (N) 3,672 6.9 -24.4°
Reaches altitude 10° 03:15:47 10° 355° (N) 2,713 6.2 -23.9°
Maximum altitude 03:22:00 82° 84° (E) 970 4.0 -22.7°
Drops below altitude 10° 03:28:06 10° 172° (S) 2,669 6.5 -21.5°
Sets 03:30:34 0° 173° (S) 3,609 7.2 -21.0°
